Wind_Speed
44 47 49 53 57 59 58 55 54 55 55 56 58 60 60 59 58 58 57 57 57 56 54 52 50 49 50 51 53 54 54 54 51 47 43 40 38 37 36 36 36 36 36 38 38 38 39 38 37 36 36 37 37 37 36 36 36 35 35 34 33 33 33 33 33 33 35 38 41 45 47 47 46 44 42 41 43 44 44 44 44 44 44 45 45
40 39 36 42 50 55 56 54 53 53 54 54 55 57 57 55 54 54 55 55 55 55 53 51 50 49 50 52 53 54 54 52 49 45 41 38 36 35 35 35 36 35 36 37 37 37 37 37 36 35 36 36 36 36 37 37 37 36 35 34 34 34 35 35 36 36 38 42 46 49 48 46 45 43 42 42 44 46 47 49 49 50 50 51 52
39 36 31 34 44 52 56 56 54 53 55 55 54 53 53 51 50 50 50 49 49 48 48 48 49 50 52 53 54 53 52 49 46 43 40 37 35 34 34 34 35 36 36 36 36 35 35 35 34 34 35 36 36 37 38 38 37 35 35 34 34 35 37 38 39 39 42 46 48 47 45 44 43 42 42 44 47 49 51 53 54 55 56 57 57
40 39 33 31 38 46 51 54 54 54 54 54 53 51 50 49 48 46 45 45 45 45 45 46 48 50 51 52 52 51 49 46 44 42 39 37 35 35 34 35 35 36 37 36 34 32 32 33 33 32 34 36 36 37 36 35 34 33 33 34 35 37 39 41 41 43 46 49 47 45 43 43 42 43 44 48 51 53 55 57 58 59 60 62 62
39 41 37 35 39 43 46 48 50 51 51 51 51 50 50 50 48 46 44 43 43 43 43 44 45 46 47 47 47 46 44 42 41 39 38 36 35 35 34 35 35 36 36 34 31 30 30 30 31 30 31 33 33 33 32 31 32 33 34 35 37 38 40 42 44 47 49 48 45 43 43 42 43 45 48 51 55 57 59 60 61 62 63 65 66
37 42 41 40 43 45 46 46 47 49 48 48 49 49 49 47 45 43 41 40 40 41 42 43 44 44 44 43 42 41 40 39 38 37 36 36 35 35 34 35 35 34 33 31 30 29 28 29 30 29 30 30 31 31 31 31 32 34 36 38 39 40 42 44 48 50 49 45 43 42 44 45 47 48 51 54 58 60 62 62 63 64 65 66 67
38 42 42 44 46 45 46 46 46 47 46 46 47 47 46 43 39 38 38 39 41 43 44 44 44 43 42 40 39 38 38 38 37 36 36 36 36 35 35 35 34 32 31 30 29 29 29 29 29 29 28 29 31 33 34 35 36 37 39 41 43 44 46 48 50 48 45 44 44 45 47 49 51 53 54 57 60 62 64 64 64 65 66 67 66
42 44 43 45 46 44 44 44 45 46 45 45 46 46 46 42 37 37 40 42 43 43 43 41 39 38 37 36 36 35 36 36 36 36 36 36 36 35 34 33 31 30 30 29 29 30 31 31 30 30 30 30 31 33 36 38 39 41 43 45 46 48 48 47 46 45 44 46 48 49 50 52 54 56 57 60 62 64 64 65 65 67 67 66 65
45 45 44 44 45 43 41 40 43 44 44 45 45 46 46 42 38 39 42 44 43 44 43 40 38 37 36 37 38 38 38 38 37 36 35 34 34 33 32 31 30 30 30 31 32 33 34 32 32 33 33 33 34 35 37 39 40 43 45 45 45 46 46 44 44 46 48 49 50 52 54 55 57 58 60 62 64 65 66 66 68 68 67 65 64
42 41 42 42 43 43 40 40 42 43 44 45 45 45 45 42 41 43 44 45 46 47 46 44 42 42 41 42 42 41 40 39 38 37 35 34 33 32 32 32 32 33 33 35 36 35 35 34 34 35 36 37 38 39 40 41 41 43 44 43 42 43 44 45 46 48 50 52 53 55 56 58 60 61 63 65 67 67 68 68 69 69 67 66 66
39 39 43 44 43 42 42 42 42 43 45 44 42 43 43 44 45 46 47 49 50 50 49 47 45 44 43 43 42 41 41 40 39 39 38 36 36 35 35 35 35 36 37 37 38 37 36 36 37 38 39 40 41 42 43 43 42 41 42 41 41 43 45 47 48 50 52 54 56 58 59 61 63 66 68 70 71 71 71 70 70 69 68 69 69
38 38 42 45 45 44 44 43 42 42 42 42 42 42 43 45 48 49 51 53 53 51 49 46 45 45 44 43 43 43 43 42 42 42 41 41 40 39 38 39 39 39 39 40 40 40 39 40 40 41 41 42 43 43 42 41 41 42 42 43 44 45 46 48 51 53 55 57 60 62 63 66 68 71 73 74 75 75 74 73 73 72 71 71 71
39 39 40 41 43 43 41 40 38 36 35 38 43 44 45 47 49 51 51 50 49 48 46 46 46 45 45 44 44 44 44 45 45 45 45 44 43 42 42 42 42 42 42 42 43 43 43 43 44 44 44 43 42 41 41 41 42 44 45 46 46 47 49 52 55 57 59 62 64 65 67 70 73 75 76 76 77 78 78 77 76 75 75 74 74
38 39 40 40 40 38 38 37 37 36 37 41 44 47 48 48 48 48 47 45 45 45 45 47 48 46 46 46 45 46 47 48 49 49 48 47 45 45 44 44 45 45 45 47 47 46 46 47 46 46 44 42 41 42 43 44 45 45 46 48 49 51 54 57 59 62 64 66 68 70 73 75 76 78 79 80 81 82 82 81 80 79 78 76 75
38 39 40 41 40 38 38 39 39 41 44 47 48 49 49 48 47 48 47 46 46 45 45 47 48 48 47 47 48 49 50 51 51 52 50 48 47 47 47 47 48 48 49 49 49 49 48 48 48 47 45 44 45 46 46 46 47 48 49 52 54 57 59 61 64 67 69 71 74 76 78 80 81 82 84 85 86 86 86 85 83 83 81 79 77
40 41 41 42 42 42 43 44 44 46 48 49 49 49 48 48 48 48 48 48 48 47 47 48 49 49 49 50 50 51 52 52 52 53 51 49 49 49 49 50 51 51 51 51 51 51 52 51 51 50 49 49 49 48 48 49 51 52 55 57 60 61 63 66 69 72 75 78 80 81 83 85 86 87 88 89 90 89 88 86 85 85 84 82 81
43 43 43 44 44 44 45 47 47 48 49 49 48 47 48 49 49 49 49 50 50 50 50 49 50 50 51 52 53 53 54 53 53 53 52 50 51 52 52 53 53 53 54 55 55 55 56 55 54 52 51 51 51 52 53 54 55 58 60 63 64 66 68 71 74 78 81 83 85 87 88 89 90 90 91 92 92 91 89 87 87 87 87 85 84
47 47 46 47 46 45 45 46 47 47 48 48 48 47 48 49 50 50 51 52 53 54 53 52 52 52 53 54 54 54 56 56 55 55 55 55 55 56 55 56 57 58 58 58 58 57 56 55 54 53 53 54 55 56 58 58 60 63 66 68 69 71 73 76 80 83 86 88 89 91 93 93 93 93 93 93 93 93 91 90 89 90 89 87 85
52 52 50 50 50 48 46 46 47 49 50 50 50 50 50 50 52 53 52 53 54 56 57 56 56 57 57 57 57 57 58 59 58 57 58 58 59 59 59 59 60 61 60 58 56 55 54 54 54 55 56 58 59 61 62 64 67 69 71 73 74 76 79 82 85 88 90 91 93 95 96 96 96 96 96 95 95 94 92 91 91 92 92 91 88
57 57 55 54 55 54 52 51 51 53 54 54 54 54 53 53 54 55 54 55 56 57 58 58 58 58 58 58 59 60 60 61 60 59 59 59 60 60 61 61 60 60 59 57 56 55 56 57 58 60 62 64 65 67 69 71 73 75 76 77 79 82 85 87 89 91 92 94 95 96 97 98 98 98 98 97 95 93 93 93 94 96 96 95 93
61 60 58 58 59 59 59 58 57 58 58 59 59 59 58 57 56 56 56 57 58 59 59 59 59 60 60 60 61 61 62 62 62 61 61 61 62 62 62 61 61 61 60 60 59 60 61 64 67 68 70 71 73 74 76 77 78 79 81 83 86 89 90 91 93 94 96 97 97 98 98 99 99 98 97 96 95 95 97 100 102 102 102 100 98
64 63 62 62 63 63 63 63 62 62 62 63 63 63 62 61 61 60 59 59 59 59 60 60 60 61 62 62 63 62 62 62 62 63 63 63 63 63 63 63 64 65 66 66 65 66 68 71 74 76 77 78 78 79 80 81 83 85 87 90 92 93 94 95 96 98 99 99 100 99 99 99 98 96 95 94 94 96 100 104 106 107 106 105 104
67 66 66 66 66 66 66 66 66 66 67 67 68 68 67 66 65 65 65 63 62 62 61 61 61 61 61 62 62 63 63 64 65 65 66 66 66 67 67 68 68 70 71 72 72 73 75 76 79 80 81 81 82 83 84 86 88 90 93 95 96 96 97 99 100 101 101 102 102 101 101 100 98 96 95 94 95 98 101 104 106 107 108 108 107
67 68 68 68 68 68 67 67 67 68 69 70 72 72 72 71 69 68 68 67 66 65 65 65 64 64 64 65 65 66 66 67 68 69 69 70 70 71 71 72 72 74 75 76 77 79 80 80 81 82 83 84 86 88 90 91 92 94 96 98 98 99 101 102 103 103 103 103 103 103 102 101 100 98 97 98 99 102 104 105 107 108 109 108 108
69 69 69 69 69 69 69 69 69 69 70 71 72 72 72 71 71 70 69 68 68 69 69 69 69 69 70 70 70 71 71 72 73 73 73 73 73 73 74 75 76 77 78 79 80 81 83 84 84 85 87 88 90 91 93 95 97 99 100 101 101 102 103 103 104 105 106 106 106 105 104 103 103 102 103 104 106 107 108 108 109 110 110 109 108
73 72 70 69 69 69 70 70 70 70 71 72 73 73 73 72 72 72 72 71 71 72 72 72 73 74 75 75 75 74 75 76 76 76 75 75 74 75 76 77 79 80 81 82 83 85 86 88 89 90 91 92 93 95 97 99 101 102 103 104 104 105 105 106 107 108 108 108 108 107 107 106 107 107 109 110 110 111 112 112 112 111 110 109 109
76 75 73 71 70 69 70 71 71 72 73 73 74 74 75 75 76 76 76 75 75 74 74 75 75 76 77 78 78 77 78 79 79 78 78 77 78 78 79 81 82 83 84 85 86 88 89 90 92 93 95 96 98 100 101 102 104 105 106 106 107 107 109 110 111 111 111 111 111 110 109 110 110 112 112 113 113 114 115 114 114 112 111 110 110
78 77 76 75 73 72 72 72 73 74 75 76 76 77 77 78 78 79 79 79 78 78 78 78 78 78 78 78 78 78 80 82 82 81 81 81 82 82 83 84 85 85 86 88 89 91 92 94 96 98 99 101 102 103 104 105 106 107 108 108 110 111 112 113 114 114 114 114 113 112 112 112 114 115 115 115 115 116 116 116 114 113 110 109 109
81 80 79 79 77 76 75 75 75 75 77 78 79 80 81 81 82 82 82 82 82 82 83 83 83 83 83 82 81 81 82 84 84 84 85 85 86 86 87 87 88 90 91 93 94 96 98 99 100 101 102 103 103 105 106 107 108 109 111 112 113 114 115 116 116 116 115 115 114 114 115 115 116 117 117 116 117 117 117 117 115 113 110 108 107
85 84 84 83 82 81 80 78 78 78 79 79 80 81 82 83 84 85 85 85 85 85 85 85 86 86 87 87 86 85 86 87 88 88 89 89 90 90 91 92 94 95 97 98 99 100 100 101 102 103 104 105 106 108 109 110 112 113 114 115 116 116 117 117 117 117 117 117 117 117 117 118 118 118 118 118 118 118 117 117 115 113 109 106 104
89 88 88 88 87 87 86 84 83 83 82 82 82 83 83 84 85 85 86 86 87 87 87 87 87 87 88 88 89 89 89 90 91 91 92 93 94 95 96 97 98 99 100 101 101 102 103 105 106 107 108 109 110 112 113 114 115 116 116 117 118 118 118 119 119 119 119 119 120 120 120 119 119 119 119 119 118 117 115 114 112 110 106 103 100
92 92 91 91 91 91 91 90 89 89 88 88 88 87 87 88 88 88 88 88 89 89 89 89 89 89 90 90 91 91 92 93 93 94 95 96 97 98 99 100 101 102 103 104 105 106 107 108 109 110 111 112 114 115 115 116 117 117 118 118 119 120 120 121 121 121 121 121 121 121 121 120 119 118 118 116 115 113 111 108 105 103 99 96 93
96 95 94 94 94 94 94 94 94 94 94 93 93 93 93 93 93 92 92 92 92 92 92 92 92 92 93 93 94 95 95 96 97 98 98 99 100 101 102 103 104 106 107 108 108 109 111 112 113 114 114 115 116 117 117 118 119 119 119 120 120 121 122 122 122 122 121 121 120 120 120 119 117 116 114 111 108 106 103 100 97 94 91 88 85
100 99 98 98 97 96 96 97 96 97 97 97 97 98 98 98 98 98 98 98 98 98 98 98 98 98 98 99 99 100 100 101 102 102 103 104 105 106 107 108 108 109 110 111 112 113 114 115 115 116 117 117 118 119 120 120 121 121 121 121 122 122 122 122 122 122 121 120 119 118 117 115 113 110 107 103 100 96 93 90 88 85 83 80 78
101 102 102 101 101 101 100 100 100 99 99 99 100 100 101 101 101 102 102 102 102 102 103 103 103 104 104 104 104 105 105 105 106 107 107 108 109 110 111 111 112 113 114 115 116 116 117 117 118 119 120 120 120 121 121 121 122 122 122 122 122 122 122 122 121 121 120 119 117 115 112 109 106 102 97 93 90 87 84 82 80 78 76 74 72
102 103 103 104 104 104 104 104 104 103 103 102 102 103 103 103 104 104 105 105 105 105 106 106 106 106 107 107 107 107 108 108 109 110 111 112 113 113 114 115 116 116 117 118 118 119 120 120 121 121 121 121 121 122 122 122 122 122 122 122 122 121 121 121 120 120 118 116 113 109 105 100 96 92 88 84 81 79 77 75 73 72 70 67 65
107 106 106 106 106 107 107 107 107 107 107 106 106 105 105 106 106 106 107 107 107 107 108 108 109 109 109 109 110 110 111 111 112 113 114 115 115 116 117 117 118 118 119 120 121 121 122 122 122 122 122 122 122 122 122 122 122 122 122 122 121 120 120 119 118 116 112 108 104 99 95 91 87 84 81 78 75 73 71 69 67 66 64 62 60
110 111 110 110 110 110 110 110 110 110 110 110 110 109 109 109 109 109 109 109 109 109 109 110 110 111 111 111 112 112 113 113 114 115 116 117 117 118 119 120 120 121 121 122 122 122 122 122 122 122 122 122 122 122 122 122 122 122 121 121 120 119 117 115 112 107 103 98 93 90 86 83 80 78 75 72 70 68 66 64 62 61 59 58 57
105 108 111 112 113 113 113 113 113 114 114 114 114 114 114 114 114 113 113 113 113 113 113 113 114 114 114 114 115 115 115 116 117 118 119 119 120 121 122 122 123 123 122 122 122 122 122 122 122 122 122 122 122 122 122 122 122 121 121 119 118 115 112 108 103 98 93 89 86 83 80 78 75 73 70 68 65 64 62 61 60 58 57 56 55
99 101 104 107 110 112 114 115 116 116 116 117 117 117 118 118 118 118 117 117 117 117 117 117 118 118 118 119 119 119 119 120 120 121 122 122 122 123 123 124 123 123 122 122 121 121 121 121 121 121 121 122 122 121 121 121 121 120 118 116 113 108 104 99 94 90 86 83 80 77 75 73 71 69 67 64 62 61 60 59 57 56 55 54 53
98 99 101 103 105 107 109 111 113 114 116 117 117 118 119 120 120 120 120 120 120 120 120 120 120 120 121 121 121 121 121 121 122 122 123 123 123 123 123 122 122 121 121 121 120 120 120 121 121 121 121 121 121 121 120 120 119 116 113 109 105 100 96 91 88 84 81 78 76 73 72 70 68 66 64 62 61 59 58 57 55 54 53 52 50
98 99 101 102 104 105 106 107 108 110 111 113 114 115 116 117 118 119 119 120 120 121 121 120 120 121 121 121 121 121 121 120 120 121 121 121 121 120 120 120 120 119 119 120 120 120 120 121 121 121 121 120 120 120 119 117 114 110 106 102 98 94 90 86 83 80 78 75 73 71 70 68 67 65 63 61 59 57 55 54 52 51 51 50 48
100 100 101 102 103 105 106 107 107 108 109 110 111 112 112 113 114 115 115 116 117 117 117 117 118 118 118 118 118 118 118 118 118 118 118 118 119 119 118 118 118 119 119 119 120 120 120 121 121 120 120 119 118 116 113 110 106 103 99 96 92 89 85 82 79 77 75 72 70 68 67 66 64 62 60 58 56 54 52 51 49 48 48 47 46
101 102 102 103 103 104 106 106 107 108 109 110 110 111 111 112 112 112 113 113 114 114 114 114 115 115 115 116 116 116 116 117 117 117 117 117 118 118 118 118 119 119 119 120 120 120 120 120 120 119 117 115 112 109 106 103 100 97 94 90 87 84 81 79 77 74 71 69 67 65 63 62 61 59 57 55 53 51 49 48 46 45 44 44 43
100 101 102 103 104 105 106 107 108 109 109 110 110 111 112 112 113 113 113 113 114 114 114 114 114 115 115 116 116 116 117 117 117 118 118 118 118 118 119 119 119 119 119 120 120 120 119 118 116 113 110 107 104 102 100 98 95 91 88 85 82 80 78 76 73 71 68 65 63 62 60 58 57 56 53 51 49 47 46 45 43 42 42 41 40
96 99 101 102 103 105 106 107 108 109 110 110 111 111 112 112 113 113 113 114 114 114 115 115 115 115 116 116 117 117 117 118 118 118 118 118 118 118 118 118 119 119 118 118 117 115 113 110 108 105 104 102 100 97 94 91 88 85 82 80 78 75 73 71 69 66 63 61 59 58 57 55 54 53 50 48 46 44 43 42 41 40 39 39 38
88 92 96 98 101 102 104 106 107 108 109 110 111 111 112 113 113 113 114 114 114 114 115 115 115 116 116 116 117 117 117 118 118 118 118 118 118 117 117 116 116 115 113 112 110 107 106 104 102 101 99 96 93 90 87 84 82 80 77 75 72 69 67 65 63 61 58 57 56 55 53 52 50 49 48 46 44 42 41 40 39 39 38 38 37
81 84 88 91 94 97 99 102 104 105 106 107 108 109 110 111 111 112 113 113 113 114 114 115 115 115 115 116 116 116 116 116 116 115 115 114 113 113 111 110 109 108 107 105 104 102 101 99 97 94 91 88 85 83 81 79 77 75 72 69 66 64 62 61 59 57 55 53 52 51 50 49 47 46 45 43 42 41 40 39 38 38 37 37 36
75 78 80 83 85 88 91 94 97 99 102 104 105 106 107 107 108 109 109 110 110 110 111 111 111 111 111 111 111 111 111 111 110 109 109 108 107 107 106 106 105 104 103 101 99 96 94 91 88 85 82 80 79 77 75 73 70 68 65 63 61 59 58 57 55 53 51 50 49 48 47 46 45 43 42 41 40 39 38 38 37 37 36 36 35
69 71 73 75 77 79 81 84 87 89 92 95 98 100 102 103 104 105 106 107 107 108 108 108 108 108 108 108 108 107 107 106 106 106 105 105 104 103 102 101 100 98 95 93 90 87 84 81 79 77 76 74 73 71 68 66 63 61 59 58 56 55 54 53 52 50 49 48 47 46 44 43 42 41 40 39 38 38 37 37 36 36 35 35 34
62 64 66 68 69 71 73 75 77 79 81 84 87 89 91 94 95 97 99 100 101 102 103 103 104 104 104 104 104 103 103 102 102 101 100 99 97 96 94 92 90 87 85 82 80 78 76 75 73 71 69 68 66 64 62 60 58 56 55 54 53 51 51 50 49 48 46 46 45 43 42 41 40 39 38 37 37 37 36 36 35 35 34 34 33
Wind_Direction
241 241 242 243 246 248 249 252 253 250 248 247 246 246 248 252 255 257 258 257 258 259 261 262 262 261 260 260 262 264 268 275 282 285 287 288 287 287 286 284 282 281 279 278 276 275 274 274 273 272 271 272 273 274 274 274 275 278 280 281 281 279 277 276 279 284 290 293 295 296 296 295 294 294 296 298 300 304 308 312 314 314 314 314 315
237 234 235 241 245 247 250 253 253 250 249 249 248 248 250 252 256 258 259 258 258 259 261 262 262 260 259 261 264 267 271 277 281 283 284 285 285 284 282 280 279 279 278 276 276 276 275 275 274 273 272 272 272 272 272 273 276 278 279 278 276 275 274 275 278 283 288 291 295 295 294 293 293 295 297 298 302 307 312 316 317 317 318 318 318
230 224 221 234 245 251 253 253 252 251 250 251 251 250 251 253 256 258 260 261 261 262 263 263 262 261 261 263 266 269 273 277 279 279 280 281 281 280 278 277 278 279 278 275 275 275 275 275 275 274 275 274 274 274 275 276 277 277 277 276 275 272 271 274 277 281 286 291 293 293 292 292 294 296 298 301 306 311 315 317 318 319 320 320 320
224 219 215 225 241 250 252 251 250 251 250 251 250 249 250 253 256 257 259 262 263 264 264 263 262 262 263 265 267 271 274 276 277 278 278 278 278 278 278 278 280 280 278 275 274 275 275 275 276 277 278 277 276 276 277 277 277 276 275 273 272 270 271 274 277 281 286 291 293 292 292 293 295 298 301 306 310 313 316 318 319 319 320 320 320
216 215 212 218 232 242 247 249 249 249 249 248 248 249 250 253 254 255 257 258 259 260 261 263 264 266 266 268 270 272 274 275 275 275 276 276 277 278 278 279 280 279 277 275 275 276 276 277 278 278 278 278 277 276 275 275 275 275 273 271 270 271 272 274 278 284 289 291 291 292 294 297 299 303 306 309 311 313 316 317 318 318 319 319 319
207 207 207 217 229 237 244 247 248 247 247 247 247 249 252 252 252 252 253 255 258 261 263 266 269 270 271 271 272 272 272 272 273 274 275 276 276 277 277 278 278 277 275 274 274 276 277 277 277 277 278 277 277 277 276 275 275 275 273 272 272 272 273 276 282 287 290 291 293 297 300 302 305 308 310 310 310 313 315 316 316 316 316 317 317
206 205 208 220 228 235 242 246 246 246 247 247 248 250 250 249 247 249 253 257 260 263 264 267 269 270 270 270 270 271 272 273 274 275 275 275 275 275 275 276 276 275 274 273 272 274 278 281 282 281 279 277 277 278 279 280 279 277 275 274 275 276 278 281 285 287 291 297 301 304 306 306 307 309 310 309 310 312 314 314 314 314 314 315 316
208 208 214 224 229 236 243 244 244 246 246 247 248 249 248 244 243 248 253 256 259 262 264 266 267 268 268 269 271 273 275 276 276 275 274 273 272 273 274 275 276 276 274 272 272 278 286 289 288 286 285 283 279 278 279 279 278 278 278 278 280 282 282 284 287 291 298 303 305 306 307 307 308 309 308 308 310 312 312 312 311 312 313 314 315
211 214 220 227 231 237 240 240 242 245 246 247 248 248 245 240 242 248 252 255 259 263 265 266 266 267 270 272 274 276 276 276 276 274 272 271 270 271 273 275 277 278 276 276 279 286 291 290 288 287 288 288 284 282 281 280 280 280 280 281 283 285 286 290 294 299 302 304 305 305 306 307 307 307 307 308 310 311 311 310 310 310 311 312 313
214 220 227 230 233 236 239 240 243 245 247 250 251 248 242 240 245 249 252 257 262 264 266 266 266 269 272 274 275 275 275 274 274 273 270 270 271 273 275 278 280 281 280 281 285 289 290 288 286 286 287 287 286 286 285 284 284 284 283 284 286 287 290 294 298 300 301 302 303 304 305 305 306 306 307 308 310 311 310 310 310 310 310 310 310
216 223 230 233 235 238 241 243 244 245 247 248 249 248 243 242 246 250 255 261 264 264 264 264 265 268 270 272 273 273 274 274 275 274 273 273 275 277 279 281 282 282 282 284 286 289 288 286 285 285 287 287 286 287 287 285 286 287 286 289 291 290 292 295 296 298 300 301 302 304 305 305 305 306 307 308 309 310 310 310 310 309 309 308 307
216 221 228 232 235 239 242 244 245 245 245 244 243 242 241 241 246 252 259 264 264 264 263 262 264 266 269 271 272 273 275 277 277 277 277 277 277 279 281 281 281 281 282 284 286 288 287 286 285 287 288 287 286 287 287 286 287 288 289 291 293 293 293 294 295 297 299 301 303 304 305 305 305 306 307 307 308 309 310 310 309 309 308 307 307
213 219 226 231 235 238 240 242 243 241 238 235 233 235 240 245 250 256 260 262 263 263 263 263 265 267 270 270 271 273 276 278 278 277 277 277 278 280 281 281 281 282 283 285 286 287 286 286 287 288 289 288 285 284 285 286 287 288 288 290 291 291 291 293 295 298 300 302 304 304 304 305 306 307 307 307 308 309 309 309 308 308 308 308 307
211 218 223 226 227 230 233 235 235 231 227 227 232 240 247 251 254 258 259 260 261 262 263 266 268 269 269 269 270 272 274 276 276 276 276 277 278 280 280 279 280 282 283 284 285 286 286 286 287 289 289 286 283 282 282 282 282 283 284 285 286 288 290 293 296 299 301 302 303 303 304 305 307 307 307 308 308 309 309 308 308 308 308 307 307
210 213 218 221 222 224 225 226 227 227 229 234 241 248 252 253 256 258 259 259 259 259 260 263 266 267 267 267 268 270 271 273 274 275 276 276 277 278 278 279 281 283 283 284 286 287 287 287 288 289 286 282 281 281 280 279 279 280 282 284 286 289 291 293 296 299 301 302 302 303 304 306 307 307 307 308 308 309 308 309 308 308 308 309 310
212 214 220 226 227 227 227 228 230 233 237 242 247 250 252 254 256 257 258 258 257 257 256 258 261 264 265 266 267 269 270 272 273 274 275 276 277 278 278 280 283 284 284 285 286 287 287 287 288 287 284 282 282 281 279 278 278 280 282 285 287 289 291 294 297 300 301 302 302 303 305 305 306 306 307 308 308 308 308 308 308 308 309 311 313
216 216 222 227 229 231 234 236 238 241 243 247 251 252 253 255 255 255 255 256 256 255 255 256 259 262 264 266 267 269 270 271 272 273 275 276 276 277 279 281 283 283 284 285 286 287 287 287 287 285 282 280 280 278 278 278 279 281 284 285 287 289 291 294 297 299 300 300 301 302 303 304 305 306 307 307 307 307 307 307 307 308 310 312 312
221 221 224 228 230 233 236 239 242 244 245 248 251 253 254 255 255 254 254 254 254 255 255 256 258 260 263 265 267 268 269 270 271 273 274 275 276 277 279 280 282 283 285 286 286 286 286 285 283 281 278 277 276 277 278 279 280 282 284 286 287 289 291 293 295 296 298 299 300 301 303 305 306 306 307 306 306 306 307 307 308 309 309 309 308
224 227 229 232 233 233 236 240 243 245 246 248 250 252 254 255 256 255 254 255 255 256 257 257 258 260 262 263 264 265 267 269 271 273 274 276 277 279 281 282 284 285 286 286 285 284 283 280 277 275 274 275 276 277 278 280 282 283 285 286 287 289 290 292 294 296 297 299 301 303 304 305 306 306 306 306 305 306 306 307 306 307 307 307 306
222 227 230 233 234 234 237 241 245 246 248 249 250 251 252 253 256 257 257 256 256 257 259 260 260 261 262 262 263 265 267 269 271 272 274 277 279 281 282 283 283 282 282 283 282 280 278 276 275 274 275 276 278 279 280 281 283 284 285 286 288 289 291 293 295 297 299 301 302 303 304 304 305 305 305 306 305 305 305 305 305 305 306 306 306
220 224 228 233 235 236 239 243 245 245 246 248 249 250 252 253 255 257 257 258 258 259 260 261 262 262 263 263 264 266 268 270 271 273 275 277 279 280 280 280 279 278 277 277 277 277 275 275 276 277 278 279 280 280 281 283 284 285 286 288 290 292 294 295 297 299 300 301 302 303 303 304 304 305 306 306 306 305 305 305 305 305 306 306 305
220 223 227 230 234 236 239 242 243 242 243 245 247 250 252 254 254 255 256 256 258 259 260 261 262 263 263 264 264 266 268 269 272 274 276 277 277 277 277 276 275 275 275 275 275 275 275 275 277 278 280 281 281 282 283 284 285 287 289 291 293 295 296 297 298 300 301 301 302 303 303 303 304 304 304 304 303 303 303 303 303 303 304 304 304
221 224 226 229 232 234 237 239 241 242 243 245 247 249 251 253 254 255 255 256 256 257 258 260 261 262 263 264 265 266 268 270 272 274 275 275 275 275 275 275 274 274 275 276 276 276 276 276 278 279 281 282 283 283 284 285 287 289 292 294 296 297 297 298 299 300 301 301 302 303 303 303 303 302 301 300 298 298 298 298 299 300 300 301 302
221 224 227 229 232 234 235 238 239 241 242 244 246 248 250 252 253 254 255 256 257 257 258 259 260 261 262 263 265 267 268 270 272 272 273 274 274 275 275 275 275 275 275 276 277 277 277 277 278 279 281 282 283 285 286 288 290 292 294 296 296 297 298 299 299 300 300 301 301 301 301 301 300 299 297 296 295 295 295 295 296 297 298 300 300
220 223 226 230 232 234 236 238 239 240 242 243 245 247 249 251 252 254 255 256 257 258 259 260 261 262 262 263 265 266 268 270 270 271 272 273 273 274 274 274 274 275 275 276 277 277 278 279 279 281 282 283 285 287 289 290 292 293 294 295 295 296 297 298 298 298 299 299 299 299 299 298 297 296 295 295 295 295 295 295 295 297 298 299 299
221 222 225 228 231 233 235 237 238 240 241 243 244 245 247 248 251 253 254 256 258 259 261 261 262 263 264 264 265 267 269 270 270 271 271 272 272 272 272 273 273 274 274 275 276 277 278 280 281 282 284 285 287 288 290 291 292 292 293 294 294 295 296 296 296 297 297 297 297 297 297 296 295 295 295 295 295 295 295 296 296 297 298 299 299
223 223 224 226 229 231 233 235 237 239 240 241 242 244 245 247 249 251 253 255 257 258 260 261 262 263 264 265 267 268 269 269 270 270 271 271 271 271 271 271 272 273 273 274 275 276 278 279 280 282 283 285 286 287 288 289 290 291 292 293 293 294 295 295 295 295 295 296 296 296 296 295 295 295 295 296 296 296 297 297 298 298 299 299 298
224 225 225 226 228 230 232 235 237 239 240 241 242 243 245 246 248 250 253 254 256 257 258 259 261 262 264 265 266 267 268 268 269 270 270 270 270 271 271 272 272 273 274 274 275 276 277 279 280 281 282 283 284 285 286 288 289 290 291 292 293 293 294 294 294 295 295 296 296 296 295 295 295 295 296 297 297 298 298 298 299 298 298 298 297
226 227 227 228 229 230 232 234 237 239 241 243 244 245 246 247 249 250 252 254 256 257 258 259 260 261 262 263 264 264 265 266 267 268 268 269 269 270 271 272 272 273 274 275 276 277 278 279 280 281 282 283 284 285 287 288 289 290 291 292 292 293 294 294 295 295 295 295 295 295 295 295 296 297 298 298 299 299 299 299 299 298 298 297 297
228 229 230 230 231 232 233 234 236 238 240 242 244 246 247 249 250 251 253 254 256 257 258 259 260 261 262 263 264 264 265 266 267 267 268 269 269 270 271 272 273 274 275 276 277 278 278 279 280 281 282 284 285 286 287 289 290 291 291 292 293 293 294 294 294 295 295 295 295 296 296 297 298 299 299 299 299 299 299 299 299 298 298 297 296
229 230 231 232 233 233 234 235 236 238 239 241 243 245 246 248 249 251 252 254 255 256 258 259 260 261 262 263 263 264 264 265 266 267 268 269 270 271 272 273 274 275 276 277 278 278 279 280 281 283 284 285 287 288 289 290 291 291 292 292 293 293 294 294 294 295 295 295 296 297 298 298 299 299 299 299 299 299 298 298 297 296 296 295 294
231 232 233 234 234 235 236 237 238 239 240 241 242 244 245 246 248 249 250 252 253 254 256 257 258 259 260 261 262 263 264 264 265 267 268 269 270 271 272 273 274 275 276 277 279 280 281 282 283 285 286 287 288 289 290 290 291 291 292 292 293 293 293 293 294 294 295 296 297 297 298 298 299 299 298 298 297 297 296 296 295 294 293 293 292
233 234 234 235 236 237 238 238 239 240 242 243 244 245 246 247 248 249 250 252 253 254 255 256 257 258 259 261 262 263 264 265 266 267 268 270 271 272 273 274 275 277 278 279 280 281 282 283 285 286 287 287 288 289 289 290 290 291 291 291 292 292 293 293 294 295 296 296 297 297 298 298 298 298 297 296 296 295 294 294 293 292 291 291 290
235 236 236 237 237 238 239 240 241 242 243 244 245 247 248 249 250 251 252 253 254 255 256 258 259 260 261 262 263 264 266 267 268 269 270 271 272 274 275 276 277 278 279 280 281 282 283 284 285 286 286 287 287 288 288 289 289 290 290 291 291 292 293 294 295 296 297 297 298 298 298 297 297 296 295 295 294 293 292 292 291 291 290 290 289
237 238 238 239 239 240 241 242 243 244 245 246 247 248 249 250 252 253 254 255 256 257 258 259 260 262 263 264 265 266 268 269 270 271 272 273 274 275 276 277 278 278 279 280 281 282 283 284 285 285 286 286 287 287 288 288 289 290 290 291 292 293 294 295 296 297 297 298 298 297 297 296 295 294 294 293 292 292 291 291 290 289 289 288 287
238 239 240 240 241 242 243 243 244 245 246 247 249 250 251 252 253 254 255 256 257 258 260 261 262 263 264 265 266 268 269 270 271 272 273 274 274 275 276 277 278 279 280 281 282 282 283 284 284 285 286 286 287 287 288 289 289 290 291 292 293 294 295 296 297 297 297 297 297 296 295 295 294 293 293 292 292 291 291 290 289 288 287 287 286
239 240 240 241 242 243 244 245 245 246 247 248 249 251 252 253 254 255 256 257 258 259 260 261 262 263 264 266 267 268 269 270 271 272 273 274 274 275 276 277 278 279 280 281 281 282 283 284 284 285 286 286 287 288 289 289 290 291 292 293 294 295 296 297 297 297 296 295 295 295 295 294 294 293 293 292 292 291 290 289 289 288 288 287 287
241 241 242 242 243 244 245 246 246 247 248 249 250 251 252 253 254 255 257 258 259 260 261 262 263 264 265 266 267 268 269 269 270 271 272 273 274 275 276 277 278 279 279 280 281 282 283 283 284 285 286 286 287 288 289 290 291 292 293 294 295 296 296 296 296 295 295 295 295 295 295 294 294 294 293 292 292 292 291 291 290 290 289 289 288
242 243 244 244 245 245 246 247 247 248 249 250 250 251 252 253 254 256 257 258 259 260 261 262 263 264 264 265 266 267 268 269 270 271 272 273 274 275 276 277 277 278 279 280 281 282 282 283 284 285 286 287 288 289 290 291 292 293 294 295 296 296 295 295 295 295 296 296 296 295 295 295 294 294 293 293 293 293 293 292 292 291 290 290 289
243 244 244 245 246 246 247 248 248 249 250 251 252 252 253 254 255 256 257 258 259 260 261 262 263 264 265 266 266 267 268 269 270 271 272 273 274 275 276 277 277 278 279 280 281 282 283 283 284 285 286 287 288 289 291 292 293 294 295 295 295 295 295 295 296 296 297 296 296 296 296 296 295 294 294 294 294 294 293 293 292 291 290 289 288
244 245 245 245 246 246 247 248 249 250 250 251 252 253 254 255 256 257 258 259 260 261 261 262 263 264 265 266 267 268 269 270 270 271 272 273 274 275 276 277 278 279 279 280 281 282 283 284 285 286 287 288 289 291 292 293 294 294 295 295 295 295 296 297 297 297 297 297 297 297 297 297 296 295 295 295 295 294 293 293 292 291 290 288 287
245 246 246 246 247 247 247 248 249 249 250 251 252 253 254 255 256 257 258 259 259 260 261 262 263 264 265 266 267 268 268 269 270 271 272 273 274 275 276 277 278 279 280 281 282 283 284 285 286 287 288 289 291 292 293 293 294 294 294 295 295 296 297 297 297 297 297 297 298 298 297 296 296 295 295 295 294 293 293 292 291 290 288 287 287
246 246 247 247 248 248 249 249 249 250 250 251 252 253 253 254 255 256 257 258 259 260 261 262 263 263 264 265 266 267 268 269 270 271 272 273 274 275 276 277 278 279 280 281 282 283 284 285 286 288 289 290 291 292 293 293 293 294 295 295 296 296 297 297 297 297 297 297 297 297 296 295 294 294 294 294 293 293 291 290 289 288 287 286 286
247 247 247 248 248 249 250 250 251 251 252 252 253 253 254 255 255 256 257 258 259 260 261 262 263 264 264 265 266 267 268 269 270 271 272 273 274 275 276 277 278 279 280 281 282 283 285 286 287 288 290 290 291 292 292 293 293 294 294 295 296 296 297 297 296 296 296 296 296 295 294 293 293 293 293 293 292 292 291 290 289 287 286 286 285
247 248 248 248 249 249 250 251 251 252 253 253 254 254 255 255 256 257 257 258 259 260 261 262 263 264 265 266 267 267 268 269 270 271 272 273 274 275 276 277 278 279 281 282 283 284 285 286 288 289 289 290 291 292 292 292 293 293 294 294 295 295 295 295 295 295 295 295 295 294 293 293 293 293 292 292 292 291 291 290 289 288 287 287 286
247 248 249 249 249 250 250 251 252 252 253 254 254 255 256 256 257 258 258 259 260 261 261 262 263 264 265 266 267 268 269 269 270 271 272 273 274 275 277 278 279 280 281 282 283 284 286 287 288 289 289 290 290 291 291 291 292 292 293 294 294 293 293 293 293 293 293 294 294 293 293 294 293 293 293 293 292 292 291 290 290 289 288 287 287
248 248 249 249 250 250 251 251 252 253 254 254 255 255 256 257 258 258 259 260 260 261 262 263 263 264 265 266 267 268 269 270 271 272 273 274 275 276 277 278 279 280 282 283 284 285 286 287 288 288 289 289 289 289 290 290 291 292 292 292 291 291 291 291 291 292 292 293 293 293 293 293 293 293 293 294 293 293 292 292 291 290 289 288 288
250 250 249 249 250 250 251 251 252 253 254 255 256 256 257 258 258 259 260 261 261 262 263 263 264 265 266 267 267 268 269 270 271 272 273 275 276 277 278 279 280 281 282 283 284 285 285 286 286 286 287 287 287 288 289 289 290 290 290 290 290 290 290 290 291 292 292 293 293 293 293 293 293 293 293 293 293 293 293 292 291 291 290 289 288
253 252 252 251 251 251 251 252 252 253 254 255 256 257 258 258 259 260 261 261 262 263 264 264 265 266 267 268 268 269 270 271 272 273 274 275 276 277 278 279 280 281 282 282 283 283 283 284 284 284 285 286 286 286 287 287 287 288 288 289 289 290 290 291 291 292 293 293 293 293 292 292 292 292 292 292 292 292 292 292 291 290 290 289 288
255 255 254 254 254 253 253 253 253 253 254 254 255 256 257 258 258 259 260 261 262 263 264 264 265 266 267 268 269 270 271 272 273 274 274 275 276 277 278 278 279 279 280 281 281 281 282 282 283 283 284 284 284 284 285 285 286 287 287 288 289 289 290 290 291 292 293 293 293 292 292 291 291 291 291 292 292 292 292 291 291 290 289 288 286
256 256 256 256 256 256 255 255 255 255 255 255 255 256 256 257 257 258 259 260 261 261 262 263 264 265 266 267 268 269 270 271 271 272 273 274 274 275 276 276 277 278 278 279 279 280 281 281 281 282 282 282 282 283 284 285 285 286 287 288 289 289 290 290 291 292 293 293 292 292 291 291 291 291 291 292 292 292 292 291 290 289 288 287 285
Height
10646 10649 10650 10649 10646 10643 10642 10644 10646 10645 10645 10645 10644 10644 10645 10645 10646 10646 10647 10649 10650 10651 10653 10655 10657 10658 10658 10659 10660 10661 10662 10661 10660 10659 10658 10658 10657 10657 10656 10655 10655 10655 10655 10654 10654 10654 10653 10652 10653 10653 10652 10652 10651 10651 10650 10650 10650 10650 10650 10650 10649 10649 10647 10646 10645 10645 10644 10643 10641 10640 10639 10638 10637 10636 10635 10634 10633 10631 10629 10627 10624 10622 10620 10618 10617
10637 10642 10645 10643 10638 10635 10636 10638 10639 10638 10638 10638 10639 10640 10641 10642 10641 10641 10642 10643 10645 10646 10649 10650 10652 10652 10653 10654 10655 10656 10656 10656 10655 10654 10653 10653 10653 10653 10652 10651 10650 10651 10651 10650 10650 10650 10649 10648 10649 10649 10648 10648 10648 10647 10646 10646 10646 10646 10646 10645 10645 10645 10643 10641 10641 10640 10639 10638 10637 10636 10634 10633 10632 10631 10631 10630 10628 10626 10624 10621 10619 10617 10614 10612 10611
10627 10635 10639 10639 10634 10630 10630 10631 10632 10632 10631 10632 10634 10636 10637 10637 10636 10637 10638 10639 10640 10642 10644 10645 10646 10647 10648 10649 10650 10651 10651 10651 10650 10649 10649 10649 10649 10649 10648 10646 10646 10646 10646 10645 10646 10646 10645 10645 10645 10645 10644 10644 10644 10643 10642 10642 10642 10641 10641 10641 10641 10640 10638 10637 10636 10636 10635 10634 10633 10631 10630 10629 10628 10627 10626 10625 10623 10620 10618 10616 10614 10611 10608 10606 10604
10622 10629 10633 10636 10632 10625 10622 10624 10625 10626 10626 10627 10628 10630 10632 10632 10632 10633 10634 10635 10636 10637 10638 10639 10640 10641 10642 10643 10644 10645 10645 10645 10645 10644 10644 10644 10644 10644 10643 10642 10642 10641 10641 10641 10641 10642 10642 10641 10641 10641 10640 10639 10639 10638 10638 10638 10637 10637 10636 10636 10636 10636 10634 10632 10631 10631 10631 10630 10628 10626 10625 10625 10623 10622 10621 10619 10617 10614 10612 10610 10608 10605 10602 10599 10597
10613 10619 10625 10628 10626 10620 10616 10617 10619 10620 10621 10622 10623 10625 10626 10627 10628 10629 10629 10630 10631 10633 10634 10634 10635 10636 10637 10638 10639 10639 10640 10639 10639 10639 10639 10639 10639 10639 10639 10638 10637 10637 10636 10636 10637 10637 10637 10637 10638 10638 10636 10635 10634 10634 10634 10634 10633 10632 10631 10631 10632 10631 10630 10628 10627 10626 10626 10625 10624 10622 10620 10620 10619 10618 10616 10613 10610 10609 10607 10605 10602 10599 10597 10594 10590
10602 10608 10613 10616 10616 10613 10610 10612 10613 10614 10616 10617 10619 10620 10621 10622 10623 10624 10625 10626 10627 10628 10629 10629 10630 10630 10631 10632 10633 10634 10634 10634 10634 10634 10634 10634 10634 10634 10634 10634 10633 10633 10632 10632 10632 10632 10633 10634 10634 10634 10632 10631 10630 10630 10629 10630 10629 10628 10627 10626 10626 10626 10626 10624 10622 10621 10620 10619 10618 10617 10615 10613 10613 10612 10610 10607 10605 10603 10601 10599 10596 10593 10591 10589 10584
10596 10601 10605 10606 10607 10606 10605 10607 10608 10609 10612 10613 10614 10615 10616 10617 10618 10619 10620 10621 10622 10623 10624 10624 10624 10625 10625 10626 10627 10628 10628 10628 10629 10629 10629 10629 10630 10630 10630 10629 10629 10629 10628 10628 10628 10628 10629 10630 10629 10629 10628 10627 10627 10626 10625 10625 10625 10624 10622 10622 10621 10620 10620 10620 10618 10616 10615 10613 10612 10611 10609 10607 10605 10604 10603 10602 10600 10597 10595 10592 10590 10587 10585 10583 10580
10594 10597 10598 10599 10600 10601 10601 10604 10605 10606 10608 10609 10609 10610 10611 10612 10613 10614 10615 10616 10616 10617 10618 10619 10619 10619 10620 10620 10620 10621 10622 10623 10624 10625 10625 10625 10625 10625 10625 10625 10625 10624 10624 10624 10625 10625 10625 10625 10624 10623 10623 10623 10623 10622 10621 10621 10620 10619 10617 10617 10615 10614 10613 10613 10612 10610 10609 10607 10605 10603 10602 10601 10599 10597 10596 10595 10594 10592 10590 10587 10585 10582 10579 10577 10574
10593 10594 10594 10594 10596 10596 10598 10600 10601 10602 10603 10604 10605 10606 10606 10607 10608 10608 10609 10609 10609 10610 10612 10613 10613 10613 10614 10614 10614 10616 10617 10619 10620 10620 10621 10621 10621 10621 10621 10620 10620 10620 10620 10620 10621 10621 10620 10620 10619 10618 10618 10618 10618 10617 10617 10616 10615 10613 10611 10611 10610 10607 10606 10606 10604 10603 10601 10600 10599 10597 10595 10593 10592 10591 10590 10589 10587 10586 10584 10581 10578 10575 10573 10570 10568
10591 10593 10593 10593 10593 10594 10595 10596 10596 10597 10597 10598 10599 10601 10601 10602 10602 10603 10603 10603 10603 10604 10606 10608 10607 10608 10608 10608 10608 10610 10612 10614 10615 10616 10616 10616 10616 10616 10616 10616 10616 10616 10616 10616 10616 10616 10615 10614 10614 10613 10612 10612 10611 10611 10610 10609 10608 10607 10605 10605 10604 10602 10599 10598 10597 10596 10594 10593 10592 10591 10589 10587 10585 10584 10583 10581 10580 10579 10577 10575 10571 10568 10566 10563 10560
10588 10591 10590 10590 10590 10591 10591 10591 10591 10591 10591 10592 10593 10594 10595 10596 10596 10597 10597 10596 10597 10599 10601 10602 10602 10601 10601 10602 10603 10604 10606 10608 10610 10610 10611 10611 10611 10611 10611 10611 10611 10611 10611 10610 10610 10610 10610 10610 10609 10608 10608 10606 10605 10604 10604 10603 10602 10600 10599 10598 10597 10596 10594 10592 10591 10590 10588 10587 10585 10583 10582 10580 10579 10577 10575 10573 10572 10570 10568 10566 10563 10561 10559 10556 10553
10584 10585 10585 10586 10586 10585 10585 10585 10585 10584 10585 10586 10587 10587 10589 10591 10592 10592 10591 10590 10591 10593 10595 10596 10595 10594 10595 10597 10597 10598 10600 10602 10603 10604 10605 10605 10606 10606 10606 10606 10606 10606 10606 10605 10605 10604 10605 10604 10604 10603 10603 10602 10600 10598 10598 10597 10595 10594 10592 10591 10590 10590 10589 10587 10585 10584 10583 10581 10579 10577 10575 10573 10571 10569 10567 10565 10563 10561 10559 10556 10554 10553 10551 10549 10546
10578 10579 10580 10581 10581 10580 10580 10580 10580 10579 10579 10580 10581 10582 10584 10586 10586 10586 10586 10587 10586 10587 10588 10588 10588 10589 10590 10592 10592 10593 10594 10595 10596 10597 10598 10599 10600 10600 10600 10600 10600 10600 10600 10599 10599 10599 10599 10598 10598 10598 10597 10596 10594 10593 10592 10590 10589 10587 10586 10585 10584 10584 10583 10581 10580 10578 10577 10575 10572 10570 10568 10566 10564 10560 10558 10557 10554 10552 10550 10548 10546 10544 10542 10539 10537
10572 10574 10575 10575 10576 10577 10577 10576 10576 10576 10575 10575 10576 10577 10578 10581 10581 10581 10582 10583 10582 10581 10581 10580 10581 10584 10585 10586 10586 10587 10588 10589 10590 10591 10592 10593 10594 10594 10594 10594 10594 10594 10594 10594 10594 10594 10593 10593 10592 10592 10591 10589 10588 10587 10585 10584 10583 10582 10581 10579 10578 10577 10576 10575 10573 10572 10570 10567 10565 10563 10560 10559 10556 10552 10549 10547 10545 10542 10540 10538 10537 10535 10533 10531 10529
10569 10569 10569 10569 10571 10573 10574 10573 10573 10572 10571 10571 10572 10572 10574 10576 10576 10575 10576 10577 10577 10577 10576 10575 10575 10578 10579 10580 10581 10581 10582 10583 10584 10584 10586 10587 10588 10588 10588 10588 10588 10588 10588 10587 10587 10587 10587 10586 10585 10585 10583 10581 10580 10579 10578 10577 10576 10575 10574 10573 10572 10571 10569 10568 10566 10565 10562 10559 10557 10555 10552 10550 10548 10544 10540 10538 10535 10533 10530 10527 10524 10522 10521 10520 10518
10565 10565 10565 10565 10566 10568 10568 10569 10568 10567 10566 10566 10567 10568 10570 10570 10570 10570 10571 10571 10572 10572 10572 10571 10571 10572 10573 10573 10574 10575 10576 10577 10577 10577 10579 10580 10581 10581 10581 10581 10582 10582 10581 10580 10581 10580 10579 10579 10579 10578 10575 10573 10572 10572 10571 10571 10570 10569 10568 10566 10565 10563 10562 10561 10560 10557 10554 10551 10549 10547 10545 10542 10539 10536 10533 10529 10525 10522 10520 10517 10513 10509 10508 10508 10506
10559 10560 10560 10559 10561 10562 10562 10563 10562 10562 10562 10562 10562 10564 10564 10563 10564 10565 10565 10565 10565 10566 10566 10567 10567 10567 10567 10567 10568 10569 10569 10570 10571 10570 10572 10573 10574 10574 10575 10575 10575 10575 10574 10575 10575 10575 10573 10572 10572 10571 10568 10567 10566 10564 10564 10564 10563 10562 10561 10559 10558 10556 10555 10555 10553 10549 10545 10543 10541 10539 10537 10534 10531 10527 10523 10519 10515 10512 10510 10509 10504 10499 10497 10497 10495
10551 10552 10553 10553 10555 10556 10557 10557 10557 10557 10558 10558 10558 10558 10558 10558 10558 10559 10559 10559 10559 10559 10560 10562 10562 10563 10562 10562 10563 10563 10562 10563 10565 10565 10566 10567 10567 10568 10569 10569 10568 10568 10568 10568 10569 10568 10567 10566 10565 10563 10561 10560 10559 10557 10557 10557 10556 10555 10553 10551 10550 10549 10548 10547 10545 10541 10538 10535 10532 10529 10527 10523 10520 10517 10513 10509 10505 10501 10498 10496 10492 10488 10488 10488 10487
10542 10544 10546 10547 10549 10550 10551 10552 10552 10552 10553 10553 10553 10553 10553 10551 10550 10551 10553 10554 10553 10553 10554 10556 10557 10558 10558 10558 10558 10558 10557 10557 10559 10560 10560 10560 10560 10560 10561 10561 10560 10560 10560 10561 10562 10561 10559 10558 10557 10556 10554 10553 10552 10551 10551 10550 10549 10547 10546 10544 10542 10541 10540 10538 10537 10533 10529 10526 10523 10519 10515 10511 10508 10506 10503 10499 10494 10489 10486 10483 10481 10478 10477 10477 10477
10534 10536 10538 10540 10541 10543 10544 10545 10546 10547 10547 10548 10547 10545 10546 10545 10544 10545 10546 10547 10547 10548 10549 10550 10552 10553 10553 10553 10553 10553 10553 10553 10554 10554 10554 10553 10553 10552 10552 10552 10552 10551 10551 10553 10555 10554 10551 10550 10548 10548 10547 10546 10546 10545 10543 10542 10541 10539 10537 10536 10534 10533 10531 10529 10526 10523 10520 10517 10513 10510 10506 10501 10497 10494 10491 10487 10482 10478 10474 10472 10470 10468 10466 10466 10465
10527 10530 10532 10533 10535 10536 10537 10538 10539 10540 10541 10541 10539 10538 10539 10540 10539 10539 10540 10540 10541 10542 10543 10545 10546 10547 10547 10548 10547 10547 10548 10548 10548 10548 10548 10548 10547 10545 10545 10545 10544 10544 10544 10546 10548 10548 10544 10540 10539 10539 10539 10538 10538 10537 10535 10533 10532 10530 10528 10527 10525 10523 10520 10517 10515 10512 10509 10507 10503 10500 10496 10491 10486 10481 10477 10473 10469 10465 10462 10459 10456 10454 10452 10453 10453
10520 10523 10525 10526 10527 10529 10530 10531 10532 10532 10533 10533 10533 10532 10533 10534 10534 10533 10534 10535 10536 10537 10538 10539 10540 10540 10541 10541 10541 10542 10542 10542 10542 10541 10541 10541 10541 10540 10539 10539 10538 10537 10536 10537 10540 10540 10537 10533 10530 10530 10530 10529 10528 10527 10526 10524 10521 10519 10518 10516 10514 10512 10509 10506 10503 10500 10497 10494 10492 10488 10484 10479 10475 10471 10466 10462 10459 10455 10452 10449 10446 10444 10441 10439 10438
10513 10515 10517 10518 10519 10520 10522 10523 10524 10525 10526 10527 10527 10527 10527 10527 10527 10527 10528 10530 10531 10532 10533 10533 10534 10534 10534 10535 10535 10535 10536 10536 10535 10534 10534 10534 10534 10533 10532 10533 10532 10530 10528 10529 10530 10530 10529 10526 10522 10521 10520 10519 10518 10516 10515 10514 10512 10509 10506 10504 10501 10499 10496 10493 10490 10487 10484 10481 10477 10474 10471 10467 10464 10462 10459 10455 10453 10449 10445 10442 10439 10437 10434 10431 10428
10506 10508 10509 10510 10512 10513 10515 10516 10516 10518 10519 10520 10521 10521 10521 10521 10520 10521 10522 10523 10524 10525 10526 10527 10528 10528 10528 10528 10529 10529 10529 10529 10528 10527 10526 10526 10526 10526 10525 10524 10524 10522 10520 10520 10520 10518 10518 10517 10516 10514 10513 10511 10508 10506 10504 10502 10500 10498 10495 10492 10489 10486 10483 10480 10477 10473 10471 10468 10465 10462 10460 10457 10455 10453 10451 10448 10444 10441 10438 10435 10431 10428 10426 10424 10421
10499 10501 10502 10504 10505 10507 10508 10509 10510 10510 10512 10513 10514 10514 10514 10514 10513 10514 10515 10516 10517 10518 10519 10520 10521 10521 10521 10521 10522 10522 10522 10521 10519 10518 10519 10519 10519 10518 10517 10515 10515 10514 10512 10511 10510 10509 10506 10506 10506 10505 10503 10501 10499 10496 10493 10491 10488 10486 10483 10481 10479 10476 10473 10470 10466 10463 10461 10459 10456 10454 10452 10448 10445 10442 10439 10435 10432 10428 10425 10423 10420 10417 10416 10414 10411
10491 10493 10494 10496 10498 10500 10501 10502 10502 10503 10504 10505 10506 10507 10507 10507 10506 10506 10507 10508 10510 10511 10512 10512 10512 10512 10513 10513 10514 10515 10514 10511 10509 10511 10512 10512 10511 10510 10509 10508 10507 10506 10505 10503 10501 10500 10498 10496 10495 10494 10492 10490 10488 10485 10483 10480 10478 10475 10473 10470 10468 10465 10462 10459 10456 10454 10451 10448 10447 10445 10441 10437 10432 10428 10424 10421 10418 10414 10410 10408 10405 10404 10404 10402 10398
10484 10485 10486 10488 10490 10491 10493 10494 10495 10496 10496 10497 10498 10499 10499 10499 10499 10499 10500 10501 10502 10503 10503 10503 10503 10504 10504 10504 10507 10508 10504 10500 10501 10503 10505 10504 10502 10501 10501 10500 10499 10498 10497 10495 10494 10492 10490 10488 10487 10485 10483 10481 10479 10476 10474 10471 10469 10466 10463 10460 10457 10454 10451 10448 10445 10442 10439 10437 10436 10434 10429 10423 10418 10414 10410 10408 10404 10399 10394 10391 10389 10389 10389 10387 10383
10476 10478 10479 10480 10481 10483 10484 10485 10486 10487 10488 10489 10490 10490 10490 10491 10491 10491 10492 10492 10493 10494 10494 10494 10496 10496 10495 10496 10499 10499 10494 10491 10492 10494 10495 10494 10493 10493 10492 10491 10490 10489 10489 10487 10486 10484 10482 10480 10478 10477 10475 10472 10470 10468 10465 10463 10460 10456 10453 10449 10446 10442 10439 10436 10433 10429 10426 10424 10422 10419 10415 10409 10404 10400 10396 10394 10390 10384 10379 10374 10371 10371 10372 10370 10365
10468 10470 10471 10472 10473 10474 10476 10477 10478 10479 10479 10480 10481 10482 10482 10482 10483 10483 10484 10484 10484 10484 10485 10486 10487 10487 10486 10487 10490 10490 10485 10483 10483 10484 10484 10484 10484 10483 10483 10482 10481 10480 10478 10478 10476 10475 10472 10470 10468 10466 10464 10462 10460 10457 10454 10452 10449 10446 10442 10439 10435 10431 10427 10423 10419 10416 10413 10410 10408 10404 10400 10395 10390 10385 10382 10379 10373 10367 10362 10357 10351 10349 10349 10349 10346
10459 10461 10463 10464 10465 10466 10467 10468 10469 10470 10471 10472 10472 10473 10473 10473 10474 10475 10475 10475 10475 10475 10475 10476 10477 10477 10476 10477 10480 10480 10477 10475 10474 10474 10474 10474 10474 10473 10473 10472 10470 10469 10467 10466 10465 10464 10462 10460 10457 10455 10453 10451 10449 10446 10443 10440 10436 10433 10429 10425 10422 10418 10413 10408 10405 10402 10399 10396 10392 10389 10385 10380 10375 10370 10367 10362 10357 10351 10346 10340 10334 10329 10328 10328 10325
10451 10453 10454 10455 10456 10458 10459 10460 10460 10461 10462 10462 10463 10464 10464 10464 10464 10465 10466 10466 10466 10466 10466 10467 10467 10467 10467 10467 10468 10469 10468 10467 10465 10464 10464 10463 10463 10462 10462 10460 10459 10457 10456 10454 10453 10452 10450 10448 10445 10443 10442 10439 10436 10433 10430 10426 10423 10419 10415 10411 10407 10403 10399 10395 10391 10388 10385 10381 10376 10372 10368 10364 10360 10356 10351 10346 10340 10335 10331 10327 10320 10315 10312 10310 10307
10442 10444 10445 10447 10448 10449 10450 10450 10451 10452 10452 10453 10454 10454 10454 10454 10455 10455 10456 10456 10456 10456 10457 10457 10458 10458 10457 10457 10457 10457 10457 10457 10456 10455 10454 10453 10452 10451 10450 10448 10447 10446 10444 10442 10441 10440 10437 10434 10432 10430 10429 10426 10423 10419 10416 10413 10409 10405 10401 10397 10393 10389 10385 10381 10377 10374 10371 10367 10363 10358 10353 10349 10346 10342 10337 10332 10327 10320 10316 10313 10309 10302 10298 10296 10293
10432 10434 10436 10437 10438 10439 10440 10441 10442 10442 10443 10443 10444 10444 10444 10444 10445 10446 10446 10446 10446 10447 10447 10448 10448 10448 10447 10447 10447 10447 10446 10446 10446 10445 10444 10443 10441 10440 10438 10437 10436 10434 10432 10430 10429 10427 10425 10422 10420 10417 10415 10413 10410 10406 10403 10399 10396 10393 10389 10385 10381 10376 10372 10367 10364 10360 10357 10354 10350 10345 10340 10335 10331 10326 10322 10318 10313 10308 10302 10299 10295 10290 10286 10283 10279
10422 10424 10425 10427 10429 10429 10429 10430 10431 10432 10433 10433 10433 10434 10434 10434 10435 10436 10436 10435 10436 10437 10437 10437 10437 10437 10437 10436 10436 10436 10435 10435 10434 10433 10432 10431 10430 10428 10426 10425 10423 10421 10419 10418 10415 10413 10412 10410 10408 10405 10403 10400 10397 10394 10390 10387 10383 10380 10376 10372 10368 10364 10359 10353 10349 10345 10342 10339 10335 10330 10325 10320 10316 10311 10306 10302 10298 10294 10289 10285 10281 10277 10274 10270 10267
10411 10413 10415 10416 10418 10419 10419 10419 10421 10422 10422 10423 10423 10423 10424 10424 10425 10425 10425 10425 10426 10426 10426 10426 10426 10426 10426 10425 10425 10424 10424 10423 10422 10421 10420 10418 10417 10416 10414 10412 10411 10409 10407 10405 10403 10401 10400 10398 10395 10393 10390 10388 10385 10381 10378 10374 10370 10366 10362 10358 10354 10350 10345 10340 10335 10331 10327 10323 10319 10314 10309 10305 10300 10296 10292 10288 10284 10280 10276 10272 10268 10265 10262 10259 10257
10399 10401 10403 10404 10406 10407 10407 10408 10410 10411 10411 10412 10412 10413 10413 10413 10414 10414 10414 10414 10415 10416 10415 10414 10414 10414 10414 10413 10413 10413 10412 10411 10410 10408 10406 10405 10404 10403 10401 10399 10398 10396 10395 10393 10391 10389 10387 10384 10382 10379 10377 10374 10370 10367 10364 10360 10356 10352 10348 10344 10340 10336 10332 10327 10322 10317 10312 10308 10304 10299 10294 10290 10285 10281 10277 10274 10270 10267 10263 10260 10256 10253 10250 10248 10246
10387 10388 10390 10392 10393 10394 10395 10396 10397 10399 10400 10400 10401 10401 10401 10401 10402 10402 10402 10402 10403 10404 10403 10402 10402 10402 10402 10401 10401 10401 10400 10399 10397 10395 10393 10392 10391 10390 10388 10386 10385 10383 10382 10380 10377 10376 10373 10371 10368 10365 10362 10359 10356 10352 10349 10345 10341 10338 10334 10330 10326 10322 10318 10313 10308 10303 10299 10295 10290 10285 10280 10275 10271 10267 10263 10260 10257 10254 10251 10248 10245 10241 10239 10237 10235
10374 10375 10377 10379 10380 10381 10383 10384 10385 10386 10388 10388 10388 10389 10389 10389 10389 10390 10390 10390 10391 10391 10391 10390 10390 10390 10389 10389 10389 10388 10388 10386 10384 10382 10380 10379 10378 10376 10375 10373 10371 10370 10369 10367 10364 10362 10360 10357 10354 10352 10348 10345 10342 10338 10334 10331 10327 10323 10319 10315 10311 10307 10303 10298 10293 10289 10285 10280 10276 10271 10266 10262 10258 10254 10250 10247 10245 10242 10239 10236 10233 10230 10228 10226 10224
10361 10362 10364 10366 10366 10368 10369 10371 10372 10373 10374 10375 10375 10376 10376 10376 10376 10377 10377 10377 10378 10378 10378 10378 10377 10376 10376 10376 10376 10375 10375 10373 10371 10369 10368 10367 10365 10363 10361 10360 10358 10357 10355 10354 10351 10349 10347 10344 10341 10338 10335 10331 10328 10324 10321 10317 10314 10309 10305 10301 10296 10292 10288 10283 10279 10275 10271 10266 10262 10257 10253 10249 10245 10241 10238 10235 10233 10230 10227 10225 10222 10220 10218 10216 10214
10348 10349 10350 10351 10352 10353 10354 10356 10357 10359 10360 10361 10362 10362 10362 10362 10363 10363 10364 10364 10364 10364 10364 10364 10363 10363 10362 10362 10362 10362 10361 10360 10358 10356 10355 10353 10351 10349 10348 10346 10345 10344 10342 10340 10338 10336 10333 10330 10327 10324 10321 10318 10314 10311 10308 10304 10299 10295 10290 10286 10282 10277 10273 10269 10265 10261 10257 10253 10249 10245 10241 10237 10233 10229 10226 10224 10222 10219 10217 10214 10212 10210 10208 10206 10204
10334 10334 10335 10336 10336 10338 10340 10341 10342 10344 10345 10346 10347 10347 10348 10348 10349 10349 10349 10350 10350 10351 10351 10350 10350 10349 10349 10348 10348 10348 10347 10346 10344 10342 10341 10339 10338 10336 10335 10333 10332 10330 10329 10327 10324 10322 10319 10317 10313 10310 10307 10304 10301 10297 10293 10289 10285 10281 10276 10272 10267 10263 10259 10255 10252 10248 10244 10240 10236 10233 10229 10225 10221 10218 10216 10214 10211 10209 10207 10205 10203 10201 10198 10196 10196
10318 10319 10320 10320 10321 10323 10325 10326 10328 10329 10330 10331 10332 10333 10333 10334 10334 10335 10335 10336 10336 10336 10337 10337 10336 10336 10335 10335 10334 10334 10333 10332 10331 10329 10328 10326 10325 10324 10322 10321 10319 10318 10316 10313 10311 10308 10305 10302 10299 10296 10293 10290 10287 10283 10279 10275 10271 10266 10262 10258 10254 10250 10246 10243 10240 10236 10232 10228 10225 10222 10218 10214 10211 10208 10206 10204 10202 10200 10198 10196 10195 10192 10190 10188 10187
10302 10304 10306 10307 10307 10308 10309 10311 10314 10315 10315 10316 10317 10319 10320 10320 10321 10322 10322 10322 10322 10322 10323 10323 10322 10322 10322 10322 10321 10320 10319 10318 10317 10316 10315 10313 10312 10311 10309 10308 10306 10305 10302 10300 10297 10295 10292 10288 10285 10283 10280 10277 10274 10270 10266 10262 10257 10253 10249 10245 10241 10238 10235 10231 10228 10225 10222 10219 10216 10213 10209 10205 10202 10200 10197 10195 10193 10192 10190 10188 10187 10185 10182 10181 10180
10287 10289 10292 10294 10296 10296 10296 10298 10299 10300 10300 10302 10303 10304 10306 10307 10307 10308 10309 10309 10308 10309 10309 10309 10309 10308 10308 10307 10307 10306 10305 10304 10303 10302 10301 10300 10299 10298 10296 10295 10293 10291 10289 10287 10284 10281 10279 10276 10273 10271 10268 10265 10262 10258 10254 10249 10245 10241 10237 10234 10231 10228 10224 10221 10217 10215 10212 10210 10207 10203 10200 10197 10194 10191 10189 10187 10185 10183 10181 10180 10179 10177 10175 10174 10173
10273 10274 10277 10281 10282 10282 10283 10284 10284 10284 10286 10288 10289 10290 10291 10292 10293 10294 10295 10295 10295 10296 10296 10296 10296 10295 10294 10293 10292 10292 10291 10290 10289 10288 10288 10287 10286 10285 10284 10282 10281 10278 10276 10274 10272 10269 10266 10264 10262 10259 10256 10253 10249 10246 10242 10238 10234 10230 10227 10224 10221 10218 10215 10211 10208 10205 10203 10201 10198 10195 10191 10189 10186 10183 10181 10180 10178 10176 10174 10172 10171 10170 10168 10167 10166
10260 10261 10263 10265 10267 10268 10269 10270 10271 10271 10272 10274 10275 10275 10276 10277 10278 10279 10280 10281 10282 10282 10282 10283 10283 10282 10281 10281 10280 10279 10278 10277 10276 10276 10275 10274 10274 10273 10271 10270 10268 10267 10264 10262 10260 10257 10255 10253 10250 10247 10244 10241 10237 10234 10230 10227 10224 10221 10218 10215 10213 10210 10206 10203 10200 10198 10196 10193 10190 10186 10183 10181 10178 10175 10173 10172 10171 10168 10167 10165 10164 10162 10161 10160 10159
10247 10247 10248 10250 10252 10254 10255 10256 10257 10257 10259 10260 10261 10262 10262 10263 10264 10265 10266 10267 10268 10268 10268 10268 10269 10269 10269 10268 10268 10267 10266 10265 10264 10264 10263 10263 10262 10261 10260 10259 10257 10255 10253 10251 10248 10246 10244 10241 10239 10236 10233 10230 10226 10223 10220 10217 10214 10211 10209 10207 10204 10201 10198 10195 10192 10191 10188 10186 10182 10179 10176 10174 10171 10168 10166 10165 10163 10161 10160 10158 10157 10156 10155 10154 10153
10232 10233 10234 10235 10237 10239 10242 10243 10243 10244 10246 10247 10247 10248 10249 10251 10251 10252 10253 10254 10254 10255 10255 10255 10255 10255 10255 10255 10255 10255 10254 10254 10253 10253 10252 10251 10251 10250 10249 10247 10246 10244 10241 10239 10237 10235 10233 10230 10228 10225 10222 10220 10217 10214 10211 10208 10205 10202 10200 10198 10195 10193 10190 10187 10184 10183 10181 10178 10175 10172 10169 10167 10165 10162 10160 10158 10157 10155 10153 10152 10151 10150 10149 10148 10147
10218 10219 10221 10222 10224 10226 10229 10230 10231 10232 10234 10234 10234 10235 10237 10238 10239 10239 10240 10241 10241 10242 10242 10242 10242 10242 10242 10242 10242 10242 10242 10242 10241 10241 10240 10240 10239 10238 10236 10235 10233 10231 10229 10228 10226 10225 10222 10220 10218 10215 10212 10210 10207 10205 10202 10200 10197 10195 10192 10190 10187 10184 10182 10179 10177 10175 10173 10171 10168 10166 10163 10161 10158 10156 10154 10153 10151 10149 10148 10146 10145 10144 10143 10142 10142
10206 10207 10208 10210 10211 10214 10216 10217 10218 10220 10221 10221 10221 10222 10224 10225 10226 10226 10227 10227 10228 10228 10228 10229 10229 10229 10229 10230 10230 10229 10229 10229 10229 10229 10228 10228 10227 10226 10225 10223 10222 10220 10219 10217 10215 10214 10212 10210 10208 10206 10203 10201 10198 10196 10194 10191 10189 10187 10185 10182 10179 10177 10174 10172 10169 10168 10166 10163 10161 10159 10157 10155 10152 10150 10149 10147 10145 10144 10142 10141 10140 10139 10138 10137 10137
10196 10196 10197 10199 10200 10202 10203 10204 10205 10207 10208 10208 10208 10209 10210 10211 10213 10214 10214 10214 10215 10215 10216 10216 10216 10217 10217 10217 10217 10218 10218 10218 10218 10217 10217 10216 10216 10215 10214 10212 10211 10209 10208 10207 10205 10203 10202 10200 10198 10196 10194 10192 10190 10187 10185 10183 10181 10179 10177 10175 10172 10170 10167 10165 10163 10161 10159 10157 10155 10152 10150 10148 10147 10145 10143 10141 10140 10139 10137 10136 10135 10134 10133 10132 10132